Weather Roundup
Issued by NWS

Home | Current Version | Previous Version | Text Only | Print | Product List | Glossary On
Versions: 1 2 3 4 5 6 7 8 9 10 11 12 13 14 15 16 17 18 19 20 21 22 23 24 25 26 27 28 29 30 31 32 33 34 35 36 37 38 39 40 41 42 43 44 45 46 47 48 49 50
000
NZUS93 KARX 020110
HRRWXR

CURRENT HOURLY OBSERVATIONS ACROSS
MUCH OF THE UPPER MISSISSIPPI VALLEY
NATIONAL WEATHER SERVICE LA CROSSE WI
800 PM CDT MON JUN 01 2015


...SOUTHEAST MINNESOTA...


CITY           SKY/WX    TMP DP  RH WIND       PRES   REMARKS
ROCHESTER      PTCLDY    62  42  47 SE10      30.16F
ROCHESTER/MAYO FAIR      65  39  39 E7        30.16F
WINONA         PTCLDY    64  39  39 CALM      30.17S
AUSTIN         CLEAR     64  39  39 SE8       30.13F
ALBERT LEA     PTCLDY    70  37  30 S7        30.12F
DODGE CENTER   CLEAR     66  39  37 SE12      30.14F
PRESTON        MOCLDY    63  40  42 SE5       30.17S
OWATONNA       PTCLDY    66  34  30 SE8       30.13S
FARIBAULT      PTCLDY    68  39  34 SE9       30.13S
$$

...ELSEWHERE IN MINNESOTA...


CITY           SKY/WX    TMP DP  RH WIND       PRES   REMARKS
MINNEAPOLIS    MOCLDY    67  39  35 SE9       30.13S
INTNL FALLS    CLOUDY    66  38  35 VRB5      30.04F
DULUTH         PTCLDY    54  32  43 E13       30.15F
RED WING       PTCLDY    66  43  42 SE8       30.14S
REDWOOD FALLS  CLEAR     72  42  34 SE20      30.05F
MANKATO        MOCLDY    70  36  28 SE15      30.11S
WORTHINGTON    CLEAR     72  45  37 SE12G17   30.06F
FAIRMONT       CLEAR     70  37  30 SE14      30.09F
$$

...SOUTHWEST WISCONSIN...


CITY           SKY/WX    TMP DP  RH WIND       PRES   REMARKS
LA CROSSE      CLEAR     67  38  34 SE6       30.16S
PRAIRIE DU CHI PTCLDY    64  38  38 CALM      30.16S
BOSCOBEL       CLEAR     64  41  42 SE3       30.17S
LONE ROCK        N/A     63  35  35 E7        30.19S
PLATTEVILLE    CLEAR     63  42  47 E6        30.18R
FORT MC COY    CLEAR     63  34  34 SE5       30.19S
VIROQUA        FAIR      62  37  39 SE6       30.18F
WIS DELLS      CLEAR     59  33  37 SE5       30.20S
$$

...ELSEWHERE IN WISCONSIN...


CITY           SKY/WX    TMP DP  RH WIND       PRES   REMARKS
MILWAUKEE      PTCLDY    50  34  54 N9        30.23S
MADISON        PTCLDY    59  29  31 E9        30.20S
GREEN BAY      CLEAR     58  41  53 NE9       30.23S
EAU CLAIRE     PTCLDY    65  40  39 S8        30.16S
BLACK RVR FLS  FAIR      64  30  28 CALM      30.18S
MEDFORD        CLEAR     58  41  52 SE3       30.20S
WAUSAU         CLEAR     61  36  39 SE9       30.19S
WIS RAPIDS     CLEAR     61  32  33 SE6       30.21S
MARSHFIELD     CLEAR     61  36  39 SE7       30.20S
RICE LAKE      CLEAR     65  39  39 SE7       30.17F
$$

...NORTHEAST IOWA...


CITY           SKY/WX    TMP DP  RH WIND       PRES   REMARKS
DECORAH        MOCLDY    64  37  36 SE5       30.16S
MASON CITY     CLEAR     67  41  38 SE10      30.14F
CHARLES CITY   CLEAR     68  39  34 SE8       30.15S
OELWEIN        PTCLDY    68  36  30 SE7       30.16S
$$

...ELSEWHERE IN IOWA...


CITY           SKY/WX    TMP DP  RH WIND       PRES   REMARKS
DES MOINES     PTCLDY    69  50  50 S13       30.11S
IOWA CITY      CLOUDY    68  51  54 SE7       30.15S
FORT DODGE     CLEAR     70  43  37 SE7       30.11F
$$

...NORTHERN ILLINOIS...


CITY           SKY/WX    TMP DP  RH WIND       PRES   REMARKS
CHICAGO-OHARE  PTCLDY    53  34  48 NE10      30.21S
CHICAGO-MIDWAY PTCLDY    55  34  45 N13       30.21R
MOLINE         CLOUDY    67  50  54 E7        30.14S
ROCKFORD       PTCLDY    60  38  43 E7        30.21R
PEORIA         CLEAR     65  54  67 SE6       30.16S
$$

NOTE: "FAIR" INDICATES FEW OR NO CLOUDS BELOW 12,000 FEET WITH NO
SIGNIFICANT WEATHER AND/OR OBSTRUCTIONS TO VISIBILITY. WIND
SPEEDS ARE IN MILES-PER-HOUR.



USA.gov is the U.S. government's official web portal to all federal, state and local government web resources and services.